Погода в Караваеве

Россия / Костромская область     57°44′05″N   41°03′26″E
темп.,
°C
ветер,
м/с
пор.,
м/с
влажн.,
%
обл.,
%
осадки,
мм/ч
давл.,
гПа
погр.,
м
21 апреля, ср
ср2100:00+4в51365100 0.4 1018768
03:00+3вюв71681100 1.0 1015741
06:00+1в81896100 3.1 1011876
09:00+2вюв91896100 6.6 1008904
12:00+4вюв101890100 0.0 1006899
15:00+6ююв91594100 3.4 10051133
18:00+4ю71187100 0.4 1007949
21:00+3ююз4991100 0.5 1009557
22 апреля, чт
чт2200:00+3ююз3893100 0.1 1011385
03:00+3ю4894100 0.1 1012290
06:00+3ю4994100 0.0 1013305
09:00+6ююз5782100 0.0 1014557
12:00+9ююз676499 0.3 10151212
15:00+9ююз786799 0.7 10161305
18:00+9ю697282 0.1 1016636
21:00+6ю5128710 0.1 1018327
23 апреля, пт
пт2300:00+7юв488370 0.0 1017178
03:00+5ююв4119019 0.0 1017244
06:00+5ююв5129242 0.0 1017323
09:00+11ю6107724 0.0 1017601
12:00+15ю686257 0.1 10171110
15:00+16ююз8105473 1.3 10161647
18:00+14ююв5106059 0.4 1016377
21:00+10ююв513775 0.4 1017281
24 апреля, сб
сб2400:00+8юв5138528 0.0 1016300
03:00+7юв513855 0.0 1014292
06:00+7юв614805 0.0 1013387
09:00+12юв8146564 0.0 10111221
12:00+15юв9125159 0.0 10091847
15:00+14юв81264100 1.0 10071509
18:00+12юв81472100 1.0 10061164
21:00+10вюв71470100 1.8 10041289
25 апреля, вс
вс2500:00+5юз5795100 3.1 1003442
03:00+4зюз4897100 8.3 1004726
06:00+4зюз4897100 1.3 1004638
09:00+3юз5897100 2.7 1004709
12:00+4юз5997100 1.4 1005657
15:00+4юз5995100 2.9 1007743
18:00+6юз5107597 1.3 1007755
21:00+2ююз498677 1.3 1008233